Location: Roques
(43.8481°N, 0.2976°E)
Time: 01:54:10
(UTC+00:00)

Daily predictions for brighter satellites

Satellite Brightness Start Highest point End
(mag) Time Altitude Azimuth Time Altitude Azimuth Time Altitude Azimuth
Cosmos 1464 Rocket 4.2 00:08:47 57° E 00:08:47 57° E 00:14:51 10° NNE
Cosmos 2333 4.3 00:04:47 10° NNW 00:10:14 75° NNE 00:10:14 75° NNE
Lacrosse 4 Rocket 3.1 00:13:02 31° NNE 00:13:02 31° NNE 00:15:17 10° NNE
Cosmos 2233 Rocket 4.3 00:10:46 55° W 00:11:05 56° WNW 00:17:19 10° N
Cosmos 2219 Rocket 2.6 00:05:30 10° NNW 00:11:07 57° ENE 00:11:13 57° ENE
Cosmos 968 Rocket 3.9 00:19:13 59° NNE 00:19:13 59° NNE 00:23:21 10° NNE
Cosmos 2322 Rocket 3.8 00:14:24 10° NW 00:17:43 24° W 00:17:43 24° W
COSMOS 2428 2.8 00:23:31 10° NNW 00:29:11 70° ENE 00:29:11 70° ENE
SL-16 R/B 4.1 00:28:37 20° ESE 00:31:35 30° ENE 00:36:52 10° N
CENTAUR R/B 4.3 00:27:24 12° W 00:32:24 29° NNW 00:38:41 10° NNE
Nadezhda 4 Rocket 4.2 00:28:30 10° N 00:34:45 61° E 00:35:18 59° ESE
Cosmos 2360 Rocket 3.4 00:29:44 10° NW 00:33:24 31° WNW 00:33:24 31° WNW
Cosmos 2034 Rocket 4.0 00:35:41 65° ESE 00:35:52 65° E 00:42:06 10° NNE
Cosmos 1513 Rocket 4.4 00:37:32 84° SW 00:37:43 85° W 00:44:11 10° N
CZ-2D R/B 3.8 00:33:37 10° NE 00:37:53 23° E 00:38:05 23° E
Cosmos 1072 Rocket 4.3 00:39:08 79° W 00:39:08 79° W 00:45:16 10° N
Okean 2 Rocket 4.4 00:41:46 37° NE 00:41:46 37° NE 00:44:54 10° NNE
Meteor 2-9 Rocket 4.2 00:41:29 75° NNW 00:41:29 75° NNW 00:46:43 10° N
GEOS 3 Rocket 4.0 00:38:11 10° NE 00:42:46 57° E 00:42:46 57° E
Cosmos 2297 Rocket 3.5 00:45:36 28° E 00:45:36 28° E 00:50:01 10° NE
Cosmos 2219 4.3 00:45:50 33° E 00:45:50 33° E 00:50:22 10° NE
Cosmos 1891 Rocket 4.5 00:46:46 71° WSW 00:47:06 72° W 00:53:34 10° N
Cosmos 1975 Rocket 4.2 00:42:38 10° NNW 00:45:36 40° NNW 00:45:36 40° NNW
Cosmos 2333 Rocket 2.5 00:43:16 10° NNW 00:48:12 60° WNW 00:48:12 60° WNW
PSLV R/B 4.5 00:44:48 10° N 00:48:26 49° NNW 00:48:26 49° NNW
Helios 1B rocket 3.8 00:46:14 10° NNE 00:48:49 38° N 00:48:49 38° N
Cosmos 44 Rocket 3.7 00:50:34 10° NNW 00:55:08 62° NNE 00:55:08 62° NNE
Cosmos 1503 Rocket 4.3 00:56:39 61° NW 00:56:39 61° NW 01:01:40 10° NNE
Cosmos 2237 Rocket 3.0 00:52:50 10° NNW 00:58:19 47° ENE 00:59:51 38° ESE
Cosmos 2151 Rocket 4.3 01:12:29 52° NE 01:12:29 52° NE 01:15:57 10° NNE
Meteor 1-12 Rocket 4.2 01:11:28 82° SSE 01:11:45 87° E 01:17:46 10° N
Timation 2 Rocket 3.7 01:14:34 78° S 01:15:00 86° ESE 01:21:06 10° NNE
Cosmos 1707 4.4 01:14:57 10° NNW 01:17:05 30° NNW 01:17:05 30° NNW
In-Cosmos 22 4.1 01:13:21 10° N 01:18:59 79° E 01:19:15 77° ESE
SJ 16-02 3.2 01:25:10 21° E 01:25:10 21° E 01:28:30 10° NE
Meteor 2-13 Rocket 4.3 01:27:08 10° N 01:33:16 88° W 01:34:11 67° S
Cosmos 2227 Rocket 2.3 01:33:34 58° SE 01:34:02 61° ESE 01:39:39 10° NNE
Cosmos 1538 Rocket 3.9 01:30:17 10° NNW 01:35:29 79° ENE 01:35:51 74° ESE
Cosmos 2195 Rocket 4.4 01:29:34 10° N 01:35:54 85° W 01:37:02 63° S
MOZ.5/SAFIR/RUBIN 5/SL-8 3.9 01:36:59 66° NW 01:36:59 66° NW 01:41:13 10° NNW
Cosmos 1025 Rocket 4.1 01:33:17 10° NNW 01:36:08 37° NW 01:36:08 37° NW
Resurs 1-4 Rocket 2.0 01:33:41 10° NNE 01:38:59 76° ESE 01:39:24 71° SE
Cosmos 1674 3.8 01:37:06 10° N 01:39:47 43° NNE 01:39:47 43° NNE
SL-19 R/B 4.4 01:36:44 10° N 01:42:38 61° WNW 01:43:22 56° WSW
NOSS 0 Rocket 4.0 01:38:32 10° NW 01:44:37 55° WSW 01:44:39 55° WSW
ATLAS 3B R/B 4.3 01:40:56 12° W 01:45:36 25° NNW 01:51:00 10° NNE
Cosmos 2279 Rocket 4.2 01:44:46 45° SSE 01:46:32 64° E 01:52:39 10° NNE
Cosmos 773 Rocket 4.4 01:42:09 10° NNW 01:46:18 46° WNW 01:46:18 46° WNW
Cosmos 1536 Rocket 4.4 01:45:20 10° NNW 01:48:26 40° NW 01:48:26 40° NW
Cosmos 2026 Rocket 3.8 01:43:53 10° N 01:49:58 78° W 01:51:08 60° SSW
USA 215 3.4 01:43:31 10° NE 01:49:59 61° SE 01:51:29 49° S
Lacrosse 4 Rocket 3.9 01:49:19 12° WNW 01:50:18 13° NW 01:52:24 10° NNW
Cosmos 1634 Rocket 3.9 01:50:27 59° SW 01:51:39 75° W 01:57:54 10° N
Cosmos 1627 Rocket 4.4 01:46:26 10° NNW 01:52:33 71° W 01:53:40 58° SSW
Cosmos 2219 Rocket 3.9 01:50:19 10° NW 01:52:54 19° WNW 01:52:54 19° WNW
Cosmos 2082 4.1 01:53:29 43° SE 01:54:38 50° ESE 02:00:04 10° NE
Cosmos 2344 4.4 01:46:06 10° NW 01:55:54 84° SW 02:09:41 10° SSE
IRAS Rocket 4.2 01:57:00 61° SW 01:57:27 64° WSW 02:03:00 10° NNW
SL-4 R/B 3.2 01:58:02 24° NNW 01:59:22 34° NNE 02:02:30 10° E
Cosmos 2142 Rocket 4.4 02:00:56 51° SSW 02:02:41 84° W 02:09:06 10° N
Meteor 1-24 Rocket 4.0 02:00:50 10° N 02:06:17 60° ENE 02:08:55 29° SSE
SL-16 R/B 2.6 02:01:21 10° NNW 02:07:01 61° ENE 02:12:33 10° SE
CBERS-1 4.3 02:02:44 10° NNE 02:07:49 61° ESE 02:09:09 45° SSE
Meteor 2-5 Rocket 3.6 02:04:21 10° N 02:10:02 86° E 02:11:59 43° SSE
Cosmos 1898 Rocket 4.3 02:11:41 32° SSE 02:13:29 43° ESE 02:18:24 10° NNE
SL-16 R/B 2.7 02:13:42 46° SW 02:14:53 51° W 02:21:00 10° NNW
ARIANE 5 R/B 3.8 02:10:27 10° NNE 02:15:12 34° E 02:18:02 20° SSE
NPP 3.7 02:11:52 10° N 02:17:12 62° WNW 02:18:22 49° WSW
IDEFIX/ARIANE 42P 4.4 02:13:48 10° NE 02:17:58 24° E 02:21:55 11° SE
CZ-2D R/B 2.5 02:12:52 10° N 02:18:12 52° WNW 02:19:24 44° WSW
Cosmos 1680 Rocket 3.8 02:13:35 10° NNW 02:18:47 64° ENE 02:22:58 16° SSE
NOSS 3-1 (C) 4.0 02:17:24 32° SSE 02:19:11 41° ESE 02:24:52 10° NE
USA 267 4.0 02:15:29 10° ESE 02:21:47 53° NNE 02:28:06 10° NW
AQUA 3.9 02:18:58 10° N 02:23:41 61° WNW 02:24:27 53° WSW
Cosmos 990 Rocket 4.3 02:23:20 38° SSE 02:25:06 59° ESE 02:30:12 10° NNE
Cosmos 1607 4.1 02:19:06 10° NNW 02:25:36 81° NE 02:32:04 10° SE
Cosmos 1766 3.6 02:26:32 50° WNW 02:26:32 50° WNW 02:30:07 10° N
ADEOS II 2.1 02:21:13 10° NNE 02:26:31 80° ESE 02:28:23 41° S
Cosmos 2263 Rocket 4.0 02:23:53 12° SSE 02:27:40 23° ESE 02:31:56 10° NE
Meteor 1-22 Rocket 4.0 02:27:12 46° SSW 02:28:51 87° W 02:34:11 10° N
Cosmos 2297 Rocket 2.8 02:27:24 35° W 02:29:03 44° WNW 02:34:29 10° NNE
Cosmos 2219 4.0 02:27:45 31° W 02:29:26 38° WNW 02:34:41 10° NNE
IRS-1D 3.4 02:25:17 10° NNE 02:30:21 81° WNW 02:31:54 46° SSW
Okean 1-7 Rocket 3.8 02:28:30 10° N 02:32:54 67° E 02:35:04 29° SSE
IRS-1C 4.3 02:30:47 10° NNE 02:36:08 70° ESE 02:38:42 31° S
TIMED 4.5 02:32:51 10° NNW 02:37:15 84° ENE 02:39:36 27° SSE
Meteor 1-28 Rocket 3.8 02:36:22 25° SE 02:38:22 54° ENE 02:42:05 10° N
Okean 1 Rocket 4.1 02:38:14 30° WNW 02:38:23 30° WNW 02:42:13 10° NNW
Cosmos 1626 2.1 02:35:18 10° NNW 02:38:56 63° W 02:38:56 63° W
Cosmos 2266 Rocket 4.0 02:33:33 10° N 02:39:58 83° E 02:45:02 17° S
Cosmos 1655 Rocket 3.9 02:34:32 10° N 02:40:49 75° W 02:44:28 26° S
Cosmos 2237 Rocket 3.2 02:37:26 10° NW 02:41:37 26° W 02:41:37 26° W
Cosmos 1470 2.9 02:41:43 44° SSE 02:42:50 71° E 02:46:49 10° NNE
CZ-4B R/B 3.6 02:38:56 10° N 02:43:34 52° WNW 02:44:50 40° WSW
SL-08 R/B 3.4 02:43:56 18° SSE 02:47:39 83° ENE 02:52:38 10° NNW
Cosmos 923 Rocket 4.1 02:43:38 10° NNW 02:48:50 54° WSW 02:51:06 31° SSW
USA 229 DEB 3.8 02:48:34 27° SSW 02:52:10 65° ESE 02:58:55 10° NE
USA 229 3.8 02:48:39 27° SSW 02:52:15 64° ESE 02:58:58 10° NE
Cosmos 2098 Rocket 3.5 02:50:05 10° N 02:54:56 77° W 02:59:34 17° S
Cosmos 158 Rocket 4.0 02:51:21 10° NNW 02:56:40 61° WSW 03:00:32 18° S
OPS 8737 4.3 02:56:59 51° SW 02:57:48 86° NW 03:00:54 10° NE
NOSS 2-3 (C) 4.4 03:01:07 24° S 03:03:16 44° ESE 03:07:49 10° NE
ERBS 2.2 03:00:07 10° NW 03:03:33 53° SSW 03:06:34 10° SSE
NOSS 3-1 (A) 3.7 03:00:07 23° S 03:03:24 53° ESE 03:09:23 10° NE
SL-14 R/B 3.9 02:59:51 10° NNW 03:03:27 35° W 03:03:48 35° WSW
SJ 16-02 2.1 03:02:10 30° WSW 03:03:29 37° WNW 03:07:37 10° N
SL-23 DEB 4.4 03:02:57 10° WNW 03:09:15 53° SW 03:13:02 10° SE
Cosmos 858 Rocket 4.5 03:07:27 26° SSW 03:10:32 84° WNW 03:15:51 10° NNE
Cosmos 1455 Rocket 3.5 03:11:32 30° SW 03:13:11 44° WNW 03:17:27 10° N
Cosmos 1943 4.2 03:08:18 10° NNW 03:13:45 49° ENE 03:19:10 10° SE
Cosmos 1809 Rocket 4.4 03:07:53 10° N 03:14:01 86° W 03:20:08 10° S
MSX 4.4 03:08:35 10° NNE 03:14:14 55° E 03:19:52 10° S
IRS-P3 4.4 03:09:44 10° N 03:14:55 51° WNW 03:17:56 24° SW
Cosmos 1758 3.4 03:13:25 31° SW 03:15:09 58° W 03:19:08 10° N
Cosmos 1626 Rocket 3.5 03:10:53 10° N 03:15:15 85° E 03:19:33 10° S
Resurs 1-4 Rocket 3.9 03:14:58 10° NNW 03:18:10 16° WNW 03:20:28 13° W
Cosmos 2227 Rocket 3.7 03:15:24 16° W 03:18:32 24° NW 03:23:05 10° N
Spot 4 Rocket 4.0 03:13:40 10° NNE 03:18:52 89° E 03:23:00 16° SSW
Meteor 1-21 Rocket 4.3 03:13:27 10° N 03:19:02 76° ENE 03:24:33 10° SSE
SeaSat 1 3.2 03:18:22 10° NE 03:23:09 48° ESE 03:27:42 11° S
Landsat 5 3.9 03:20:08 10° SSE 03:23:56 59° ENE 03:27:54 10° N
Cosmos 1461 3.7 03:23:26 23° WSW 03:25:46 44° NW 03:30:09 10° NNE
CZ-2C R/B 2.9 03:23:02 10° NNE 03:26:56 71° ESE 03:30:09 14° S
CZ-2D R/B 3.4 03:24:31 10° N 03:28:32 66° WNW 03:31:10 20° SSW
Cosmos 2227 4.3 03:24:45 16° SSW 03:29:24 82° ESE 03:35:11 10° NNE
FALCON 9 DEB 3.4 03:26:46 10° NW 03:30:14 69° NNE 03:33:42 10° ESE
ATLAS CENTAUR R/B 3.9 03:28:40 10° SSE 03:31:17 16° ESE 03:33:48 10° ENE
Cosmos 1340 Rocket 3.5 03:29:56 23° SW 03:31:46 36° WNW 03:35:28 10° N
ATLAS 3B CENTAUR R/B 4.1 03:27:04 17° WSW 03:32:04 24° SSW 03:37:00 10° SSE
USA 215 3.9 03:26:39 10° NE 03:32:54 50° NNW 03:38:49 12° W
ERS-2 2.4 03:31:36 10° SSE 03:35:12 70° ENE 03:38:51 10° N
Cosmos 724 4.3 03:30:31 10° NW 03:36:34 86° WSW 03:42:41 10° SSE
Meteor 2-21 4.4 03:31:04 10° NNW 03:37:03 66° W 03:43:04 10° S
Cosmos 1953 2.3 03:35:03 17° SSW 03:38:05 64° W 03:42:06 10° N
SL-4 R/B 1.7 03:35:42 10° WNW 03:39:00 47° SW 03:42:17 10° SE
Cosmos 1726 2.4 03:38:38 19° SSW 03:41:01 48° WNW 03:44:37 10° N
Cosmos 1908 3.6 03:39:22 10° S 03:43:14 65° E 03:47:08 10° NNE
Meteor 1-16 Rocket 4.1 03:38:56 10° S 03:44:17 87° E 03:49:48 10° N
Cosmos 2285 Rocket 4.4 03:39:43 10° S 03:45:58 67° ESE 03:52:12 10° NNE
H-2A R/B 1.9 03:45:31 10° S 03:49:36 62° WSW 03:53:40 10° NNW
SL-16 R/B 3.4 03:46:31 10° NW 03:50:36 21° W 03:54:15 11° SW
Cosmos 2150 Rocket 4.2 03:45:41 10° S 03:50:48 70° ESE 03:56:00 10° NNE
Cosmos 1937 Rocket 4.2 03:47:07 15° SW 03:51:04 39° WNW 03:56:03 10° N
ARIANE 5 R/B 3.5 03:49:37 10° N 03:54:14 33° WNW 03:58:22 12° SW
Cosmos 1825 Rocket 3.9 03:51:28 10° N 03:55:48 68° E 04:00:05 10° SSE
IDEFIX/ARIANE 42P 3.0 03:52:49 10° N 03:57:45 45° WNW 04:02:40 10° SW
CZ-4C R/B 3.2 03:55:57 10° S 03:58:59 40° W 04:02:06 10° NNW
Cosmos 1328 3.8 03:56:11 10° N 04:00:12 87° ENE 04:04:12 10° S
NOSS 2-3 (E) 4.0 03:57:58 13° SW 04:01:40 56° NW 04:06:37 10° NNE
CZ-4B R/B 2.6 03:58:54 10° SSE 04:02:04 45° ENE 04:05:11 10° N
USA 267 3.3 03:58:23 10° SSE 04:04:46 55° SW 04:11:11 10° NW
ADEOS II 3.9 04:02:31 10° NNW 04:05:33 16° WNW 04:08:33 10° W
NOSS 3-1 (C) 4.2 04:04:50 10° WSW 04:10:02 38° NW 04:16:04 10° NNE
Cosmos 1703 3.4 04:07:05 10° NNW 04:11:00 58° W 04:14:52 10° S
Cosmos 2263 Rocket 2.5 04:05:44 10° SW 04:11:11 53° WNW 04:16:38 10° NNE
Cosmos 372 Rocket 4.3 04:08:34 10° SW 04:13:37 50° WNW 04:18:44 10° N
Cosmos 1553 Rocket 4.0 04:07:36 10° SSW 04:13:37 68° W 04:19:42 10° N
SAR-Lupe-4 3.7 04:13:41 10° SSE 04:17:15 80° ENE 04:20:51 10° N
Cosmos 482 Debris 4.3 04:15:51 10° WNW 04:21:17 68° SW 04:24:31 10° SE
Cosmos 1606 Rocket 3.6 04:17:47 10° SSW 04:22:14 70° W 04:26:44 10° N
Aureole 3 4.2 04:17:48 10° SSW 04:22:46 77° W 04:29:10 10° N
SL-08 ROCKET BODY 4.4 04:18:15 10° NNW 04:24:20 73° W 04:30:17 10° S
Cosmos 1745 Rocket 4.0 04:18:06 10° N 04:24:25 78° W 04:30:37 10° S
Cosmos 1300 3.2 04:20:47 10° S 04:24:32 63° E 04:28:20 10° NNE
CZ-2C R/B 2.3 04:20:08 10° N 04:24:42 72° WNW 04:29:17 10° SSW
NOSS 2-3 (D) 4.5 04:21:32 10° WSW 04:25:36 40° NW 04:30:22 10° NNE
Cosmos 1125 Rocket 3.6 04:21:29 10° SSW 04:26:43 88° WNW 04:32:00 10° NNE
